Location: Chicago
(41.8500°N, 87.6500°W)
Time: 18:31:19
(UTC-06:00)

ISS - Visible Passes

Search period start: 10 December 2017 00:00
Search period end: 20 December 2017 00:00
Orbit: 402 x 407 km, 51.6° (Epoch: 10 December)

Date Brightness Start Highest point End Pass type
(mag) Time Alt. Az. Time Alt. Az. Time Alt. Az.
10 Dec -1.9 18:14:49 10° NW 18:16:23 21° NNW 18:16:23 21° NNW visible
11 Dec -2.3 17:22:41 10° NW 17:25:21 22° NNE 17:26:28 19° NE visible
11 Dec -0.6 18:58:51 10° WNW 18:59:09 12° WNW 18:59:09 12° WNW visible
12 Dec -3.4 18:06:36 10° NW 18:09:21 50° N 18:09:21 50° N visible
13 Dec -3.1 17:14:25 10° NW 17:17:29 35° NNE 17:19:45 15° E visible
13 Dec -1.2 18:50:58 10° WNW 18:52:27 21° W 18:52:27 21° W visible
14 Dec -3.4 17:58:28 10° WNW 18:01:43 60° SW 18:03:07 30° SSE visible
15 Dec -3.9 17:06:08 10° NW 17:09:26 72° NNE 17:12:42 10° ESE visible
15 Dec -0.8 18:43:50 10° W 18:45:30 13° SW 18:46:55 11° SSW visible
16 Dec -1.5 17:50:38 10° WNW 17:53:23 25° SW 17:56:07 10° SSE visible
17 Dec -2.7 16:57:59 10° WNW 17:01:11 47° SW 17:04:20 10° SE visible
18 Dec -0.2 17:44:05 10° WSW 17:44:52 11° SW 17:45:38 10° SW visible
19 Dec -0.7 16:50:14 10° W 16:52:44 20° SW 16:55:13 10° S visible
